Preview of NWS' New Version of Forecast
This preview is not operational and should not be used for support decisions.

Regional Weather Roundup (RWR)

Issued by National Weather Service (NWS)

                            
000
ASUS43 KDMX 240806
RWRIA 

WEATHER ROUNDUP FOR IOWA
NATIONAL WEATHER SERVICE DES MOINES IA
300 AM CDT MON JUN 24 2019

NOTE: "FAIR" INDICATES FEW OR NO CLOUDS BELOW 12,000 FEET WITH NO
SIGNIFICANT WEATHER AND/OR OBSTRUCTIONS TO VISIBILITY.

* - THESE STATIONS ARE NOT NWS STATIONS...THUS NOT UNDER NWS
QUALITY CONTROL.  THEY ALSO DO NOT REPORT WEATHER SUCH 
AS PRECIPITATION OR FOG.  

IAZ001>003-012>014-020>022-031>034-043>046-240900-
   NORTHWEST IOWA
  
CITY           SKY/WX    TMP DP  RH WIND       PRES   REMARKS
CARROLL *      CLOUDY    63  59  88 NW10      29.70R                  
CHEROKEE *     DRIZZLE   60  60 100 NW10G16   29.71F                  
DENISON *      CLOUDY    61  59  94 NW8       29.74S                  
LE MARS *      CLOUDY    59  59 100 W7        29.74S                  
SHELDON *      LGT RAIN  59  59 100 NW12G20   29.71R                  
SIOUX CITY     LGT RAIN  59  55  87 NW10      29.75S                  
SPENCER        CLOUDY    62  58  86 W6        29.69S                  
STORM LAKE *   CLOUDY    59  59 100 NW12G17   29.68S                  
$$
 
IAZ055>058-069>071-079>083-090>094-240900-
   SOUTHWEST IOWA
  
CITY           SKY/WX    TMP DP  RH WIND       PRES   REMARKS
ATLANTIC *     CLOUDY    63  63 100 W10       29.71S                  
AUDUBON *      CLOUDY    61  57  88 CALM      29.73R                  
CLARINDA *     CLOUDY    64  63  94 NW12G17   29.75R                  
COUNCIL BLFS * CLOUDY    61  61 100 NW8       29.73S                  
CRESTON *      CLOUDY    64  64 100 W8G14     29.70S                  
HARLAN  *      DRIZZLE   61  61 100 NW13G20   29.73R                  
LAMONI         MOCLDY    66  64  93 SW10      29.70F                  
RED OAK *      CLOUDY    63  61  94 W9        29.74S                  
SHENANDOAH *   CLOUDY    64  61  88 NW7G14    29.73F                  
$$
 
IAZ047>049-059>061-072>074-084-240900-
   CENTRAL IOWA
  
CITY           SKY/WX    TMP DP  RH WIND       PRES   REMARKS
AMES           CLOUDY    66  65  96 SW5       29.64F                  
ANKENY *       MOCLDY    66  64  94 SW8       29.66S                  
BOONE *        CLOUDY    66  66 100 W7        29.64S                  
CHARITON *     MOCLDY    66  66 100 SW9       29.68R                  
DES MOINES     CLOUDY    66  63  90 SW10      29.65R                  
GRINNELL*      CLEAR     65  64  95 SW8       29.67F                  
KNOXVILLE *    MOCLDY    64  64 100 SW6       29.66S                  
MARSHALLTOWN   PTCLDY    64  64 100 SW7       29.63F                  
NEWTON *       PTCLDY    64  64 100 CALM      29.65F                  
PELLA *        PTCLDY    65  63  93 S5        29.66F                  
PERRY *        CLOUDY    64  64 100 W10       29.67R                  
$$
 
IAZ004>006-015-016-023>025-035-036-240900-
   NORTH CENTRAL IOWA
  
CITY           SKY/WX    TMP DP  RH WIND       PRES   REMARKS
ALGONA *       CLOUDY    61  61 100 NW7       29.65S                  
CLARION *      MOCLDY    63  63 100 NW7       29.63F                  
ESTHERVILLE    CLOUDY    59  57  93 W9        29.66S                  
FORT DODGE *   CLOUDY    61  60  97 NW6       29.66R                  
MASON CITY     FOG       64  63  96 NW10      29.62F VSB 3/4          
FOREST CITY *  CLOUDY    63  63 100 NW9       29.63F                  
IOWA FALLS *   CLOUDY    66  65  97 SW3       29.64F                  
$$

IAZ007>011-017>019-026>030-037>042-050>054-066-240900-
   NORTHEAST IOWA
  
CITY           SKY/WX    TMP DP  RH WIND       PRES   REMARKS
CEDAR RAPIDS   FAIR      66  66 100 SW6       29.63F                  
CHARLES CITY * CLOUDY    66  64  94 SW8       29.63F                  
CLINTON *      CLOUDY    68  67  96 S5        29.63F                  
DECORAH *      CLOUDY    66  66 100 VRB5      29.61S                  
DUBUQUE        FAIR      64  63  96 SW3       29.64F                  
MONTICELLO *   FAIR      64  64 100 SE3       29.63S                  
OELWEIN *      MOCLDY    66  66 100 SW7       29.64R                  
WATERLOO       FAIR      67  64  90 SW5       29.62F                  
$$
 
IAZ064-065-067-068-078-240900-
   EAST CENTRAL IOWA
  
CITY           SKY/WX    TMP DP  RH WIND       PRES   REMARKS
DAVENPORT      MOCLDY    69  66  90 S3        29.65F                  
IOWA CITY      MOCLDY    67  65  93 CALM      29.65F                  
MT. PLEASANT * PTCLDY    68  68 100 CALM      29.67R                  
MUSCATINE *    MOCLDY    68  68 100 CALM      29.64F                  
QUAD CITIES    FAIR      69  66  90 CALM      29.62F                  
$$
 
IAZ062-063-075>077-085>089-095>099-240900-
   SOUTHEAST IOWA
  
CITY           SKY/WX    TMP DP  RH WIND       PRES   REMARKS
BURLINGTON     CLOUDY    69  67  93 SW7       29.66S                  
FAIRFIELD *    CLEAR     68  66  94 SW9       29.67R                  
FORT MADISON * MOCLDY    68  68 100 SW7       29.68R                  
KEOKUK *       MOCLDY    68  66  94 SW9       29.67R                  
OSKALOOSA *    FAIR      65  63  91 SW9       29.67S                  
CENTERVILLE *  FAIR      66  66 100 SW8       29.69F                  
OTTUMWA        CLEAR     67  64  90 SW8       29.66F                  
WASHINGTON *   CLEAR     68  68 100 SW6       29.64S                  
$$

ABBREVIATIONS USED IN REMARKS
   TC - TEMPERATURES IN CELSIUS
  WCI - WIND CHILL INDEX
   HX - HEAT INDEX
  VSB - VISIBILITY  
$$